Torna al catalogo

STARLINK-5492

AttivoComunicazioniVLEO
NORAD 55331·PAYLOAD·🇺🇸 United States

Lanciato Jan 26, 2023 da Cape Canaveral Space Force Station

Loading…

Prossimi Passaggi (prossime 24 ore)

TLE

AggiornatoSource: CelesTrak SupGP

Epoca: Sep 14, 2026, 14:39 UTC

1 55331C 23013A   26257.61090278  .00057309  00000+0  20757-2 0  2574
2 55331  43.0016 316.5758 0001192 280.9517 145.4835 15.27551581    14

Traccia STARLINK-5492 in tempo reale con AllMySat

Download on the App Store